Location: Ertinghausen
(51.6624°N, 9.7874°E)
Time: 14:49:35
(UTC+00:00)

Cosmos 2221 Rocket - Pass Details

Date: 23 May 2024
Orbit: 617 x 646 km, 82.5° (Epoch: 13 June)

Event Time Altitude Azimuth Distance (km) Brightness Sun altitude
Exits shadow 02:28:23 - 185° (S) 2,829 6.5 -6.5°
Reaches altitude 10° 02:30:20 10° 185° (S) 2,041 5.8 -6.3°
Maximum altitude 02:34:52 81° 99° (E) 660 3.8 -5.8°
Drops below altitude 10° 02:39:26 10° 12° (NNE) 2,048 7.2 -5.3°
Sets 02:41:41 0° 12° (NNE) 2,959 8.1 -5.1°
